This is the latest recevied weather packets stored in our database for station/object OH3FZQ-L1. If no packets are shown the sender has not sent any weather packets the latest 1 day(s).
| Time | Temp. | Humidity | Pressure | Rain* | Wind** | Luminosity | Snow |
|---|---|---|---|---|---|---|---|
| 1778050995 | 21.11° C | 43% | 1003.2 hPa | - | - | - | - |
| 1778050095 | 21.67° C | 43% | 1003.1 hPa | - | - | - | - |
| 1778049195 | 21.67° C | 43% | 1002.9 hPa | - | - | - | - |
| 1778048295 | 21.67° C | 43% | 1002.9 hPa | - | - | - | - |
| 1778047395 | 21.67° C | 43% | 1002.8 hPa | - | - | - | - |
| 1778045596 | 21.67° C | 43% | 1002.6 hPa | - | - | - | - |
| 1778044696 | 21.67° C | 43% | 1002.4 hPa | - | - | - | - |
| 1778043796 | 21.67° C | 44% | 1002.3 hPa | - | - | - | - |
| 1778042896 | 21.67° C | 45% | 1002.2 hPa | - | - | - | - |
| 1778041995 | 21.67° C | 45% | 1002.1 hPa | - | - | - | - |
| 1778039295 | 21.67° C | 48% | 1001.7 hPa | - | - | - | - |
| 1778038395 | 21.67° C | 50% | 1001.5 hPa | - | - | - | - |
| 1778037495 | 21.67° C | 43% | 1001.4 hPa | - | - | - | - |
| 1778036595 | 21.67° C | 41% | 1001.2 hPa | - | - | - | - |
| 1778035694 | 21.67° C | 42% | 1001.1 hPa | - | - | - | - |
| 1778034794 | 21.67° C | 42% | 1001 hPa | - | - | - | - |
| 1778033894 | 21.67° C | 42% | 1000.8 hPa | - | - | - | - |
| 1778032994 | 21.67° C | 42% | 1000.5 hPa | - | - | - | - |
| 1778032094 | 21.67° C | 43% | 1000.4 hPa | - | - | - | - |
| 1778031194 | 21.67° C | 43% | 1000.3 hPa | - | - | - | - |
| 1778030294 | 21.67° C | 43% | 1000.3 hPa | - | - | - | - |
| 1778029394 | 21.67° C | 43% | 1000.3 hPa | - | - | - | - |
| 1778028494 | 21.67° C | 43% | 1000.2 hPa | - | - | - | - |
| 1778027594 | 21.67° C | 43% | 999.9 hPa | - | - | - | - |
| 1778023095 | 21.67° C | 43% | 999.6 hPa | - | - | - | - |
* Rain since midnight (hover to see other rain measurements)
** Current wind speed in m/s (hover to see current wind gust speed)